Location: Carella
(45.8167°N, 9.2667°E)
Time: 08:02:47
(UTC+00:00)

Cosmos 2184 Rocket - Visible Passes

Search period start: 11 August 2020 00:00
Search period end: 21 August 2020 00:00
Orbit: 960 x 1001 km, 82.9° (Epoch: 10 August)

Date Brightness Start Highest point End Pass type
(mag) Time Alt. Az. Time Alt. Az. Time Alt. Az.
11 Aug 7.0 02:40:00 10° NNE 02:43:21 15° ENE 02:46:40 10° E visible
12 Aug 6.5 03:05:46 10° NNE 03:10:53 25° ENE 03:15:55 10° ESE visible
13 Aug 5.4 03:32:12 10° N 03:38:11 43° ENE 03:44:04 10° SE visible
14 Aug 7.0 02:15:36 10° NNE 02:18:35 14° ENE 02:21:33 10° E visible
14 Aug 7.7 19:24:07 10° WNW 19:25:07 10° NW 19:26:07 10° NW visible
15 Aug 6.4 02:41:12 10° NNE 02:46:09 24° ENE 02:51:02 10° ESE visible
16 Aug 5.5 03:07:35 10° N 03:13:29 40° ENE 03:19:17 10° SE visible
17 Aug 6.9 01:51:16 10° NE 01:53:51 13° ENE 01:56:23 10° E visible
17 Aug 4.4 03:34:18 10° N 03:40:36 71° E 03:46:47 10° SSE visible
17 Aug 7.6 18:58:34 10° WNW 19:00:22 11° WNW 19:02:11 10° NW visible
18 Aug 6.4 02:16:40 10° NNE 02:21:25 22° ENE 02:26:07 10° ESE visible
19 Aug 5.5 02:42:59 10° N 02:48:47 38° ENE 02:54:28 10° SE visible
20 Aug 6.9 01:27:02 10° NE 01:29:05 12° ENE 01:31:08 10° ENE visible
20 Aug 4.4 03:09:40 10° N 03:15:55 66° E 03:22:04 10° SSE visible
